{"data":{"norad_id":40424,"intl_designator":"2015-010A","name":"ABS-3A","alt_names":[],"object_type":"PAYLOAD","status":"ACTIVE","operator":null,"country":"ABS","launch_date":"2015-03-02","launch_site_code":"AFETR","launch_vehicle":null,"mission":null,"orbit_class":"UNKNOWN","rcs_meters":6.019,"size_class":null,"mass_kg":null,"dimensions":null,"purposes":["comms"],"wikipedia_slug":null,"has_3d_model":false,"image_url":null,"decayed_at":null,"tle_current":{"epoch":"2026-09-19T08:24:11.200032Z","epoch_age_seconds":121318,"freshness":"FRESH","line1":"1 40424U 15010A   26262.35012963 -.00000031  00000+0  00000+0 0  9991","line2":"2 40424   0.0035 179.7278 0001973 302.3649 359.2216  1.00272194 42327","mean_motion":1.00272194,"eccentricity":0.0001973,"inclination_deg":0.0035,"raan_deg":179.7278,"arg_perigee_deg":302.3649,"mean_anomaly_deg":359.2216,"bstar":0,"rev_number":4232,"period_min":1436.0910463373,"perigee_km":35778.161225039,"apogee_km":35794.799383027,"semimajor_km":42164.617304033,"source":"CELESTRAK","updated_at":"2026-09-20T09:00:35.215213Z"}}}